Flag for Switzerland Weather past 2 weeks in Grenchen, Solothurn, Switzerland

Now
70 °F

Mild.


Feels Like: 70 °F
Forecast: 59 / 88 °F
Wind: 1 mph from Southwest

Location: Grenchen

Current Time: Aug 28, 2015 at 10:09:38 AM

Latest Report: Aug 28, 2015 at 9:00 AM


Visibility: N/A

Pressure: 30.06 "Hg

Humidity: 71%

Dew point: 60 °F

Location of GrenchenLocation

Historic Weather in Grenchen — Graph

°F

Grenchen temperature yesterday

Maximum temperature yesterday: 83 °F (at 5:00 PM)
Minimum temperature yesterday: 54 °F (at 4:00 AM)
Average temperature yesterday: 68 °F

Past Weeks' High & Low Weather Summary

 TemperatureHumidityPressure
High89 °F (Aug 13, 3:00 PM)100% (Aug 15, 3:00 AM)30.27 "Hg (Aug 15, 3:00 AM)
Low47 °F (Aug 26, 6:00 AM)30% (Aug 25, 4:00 PM)29.73 "Hg (Aug 24, 7:00 AM)
Average64 °F75%29.99 "Hg
* Reported Aug 13 8:00 AM — Aug 28 8:00 AM, Grenchen, Weather by CustomWeather, © 2015

Note: Actual official high and low records may vary slightly from our data, if they occured in-between our weather recording intervals... More about our weather records

Advertising

Grenchen weather history for previous 24 hours

 ConditionsComfort  
Time TempWeatherWind HumidityBarometerVisibility
8:00 AM
Fri, Aug 28
64 °FMild.1 mph90%30.06 "HgN/A
7:00 AM62 °FCool.2 mph95%30.04 "HgN/A
4:00 AM64 °FMild.2 mph87%30.00 "HgN/A
3:00 AM64 °FMild.1 mph85%29.99 "HgN/A
2:00 AM65 °FMild.2 mph82%29.99 "HgN/A
1:00 AM65 °FMild.3 mph83%29.98 "HgN/A
10:00 PM
Thu, Aug 27
69 °FMild.2 mph71%29.93 "HgN/A
9:00 PM73 °FMild.2 mph58%29.89 "HgN/A
8:00 PM77 °FWarm.5 mph48%29.87 "HgN/A
7:00 PM82 °FPleasantly warm.6 mph40%29.85 "HgN/A
6:00 PM83 °FPleasantly warm.14 mph35%29.84 "HgN/A
5:00 PM83 °FPleasantly warm.15 mph35%29.85 "HgN/A
4:00 PM82 °FPleasantly warm.15 mph38%29.87 "HgN/A
3:00 PM80 °FWarm.13 mph42%29.90 "HgN/A
2:00 PM80 °FWarm.10 mph46%29.91 "HgN/A
1:00 PM77 °FWarm.13 mph49%29.93 "HgN/A
12:00 PM73 °FMild.5 mph58%29.96 "HgN/A
11:00 AM71 °FMild.6 mph60%29.97 "HgN/A
10:00 AM66 °FMild.2 mph74%29.99 "HgN/A
Weather by CustomWeather, © 2015

See weather overviewHow to use our weather pages